Voltar ao catálogo

STARLINK-32677

AtivoComunicaçõesVLEO
NORAD 63020·PAYLOAD·🇺🇸 United States

Lançado Feb 15, 2025 de Cape Canaveral Space Force Station

Loading…

Próximas Passagens (próximas 24 horas)

TLE

AtualizadoSource: CelesTrak SupGP

Época: Sep 15, 2026, 03:36 UTC

1 63020C 25032R   26258.15048611  .00052644  00000+0  19064-2 0  2582
2 63020  43.0026 346.2021 0001761 262.0577 115.3477 15.27557076    14

Acompanhe STARLINK-32677 em tempo real com AllMySat

Download on the App Store